FW6132 West Bay Marshes CA current weather conditions

sailwx.info

Wind from 230

Air temperature 11.7° C
Dewpoint 10.2° C

Last reported at 2020-Jul-06 05:00 UTC.
Time now 2020-Jul-06 05:36 UTC

Location: N 45°46' W 061°07'.
View on Google Maps.

See reports from other nearby stations

  
Tides and Currents Weather Stations Pressure Air Temp Water Temp Dewpoint Dewpoint Depression Visibility Wind Speed Wind Dir Waves Ship Positions
date/time (UTC)wind fromknots sea level pressurealtimeterstation pressurevisibilityair tempwater tempwave heightnotes
2020-Jul-06 05:00 230 11.7
2020-Jul-06 04:55 230 11.7
2020-Jul-06 04:50 199 0 gusting 3 11.7
2020-Jul-06 04:40 255 1 gusting 3 12.2
2020-Jul-06 04:35 231 0 gusting 3 12.2
2020-Jul-06 04:21 239 0 gusting 4 12.2
2020-Jul-06 04:16 218 1 gusting 4 12.2
2020-Jul-06 04:11 202 0 gusting 4 12.2
2020-Jul-06 04:03 201 3 gusting 7 12.8
2020-Jul-06 03:56 214 5 gusting 7 12.8
2020-Jul-06 03:51 199 2 gusting 5 12.2
2020-Jul-06 03:41 170 3 gusting 6 12.8
2020-Jul-06 03:36 166 3 gusting 6 12.8
2020-Jul-06 03:31 180 4 gusting 6 12.8
2020-Jul-06 03:25 193 4 gusting 6 12.8
2020-Jul-06 03:21 205 4 gusting 7 12.8
2020-Jul-06 03:17 204 5 gusting 7 12.8
2020-Jul-06 03:11 212 5 gusting 6 12.8
2020-Jul-06 03:05 193 4 gusting 6 12.8
2020-Jul-06 03:02 213 4 gusting 7 12.8
2020-Jul-06 02:55 191 4 gusting 6 12.8
2020-Jul-06 02:50 214 3 gusting 7 12.8
2020-Jul-06 02:46 179 6 gusting 7 12.8
2020-Jul-06 02:40 190 3 gusting 6 12.8
2020-Jul-06 02:36 164 3 gusting 6 12.8
2020-Jul-06 02:34 151 3 gusting 6 12.8
2020-Jul-06 02:25 187 4 gusting 7 12.8
2020-Jul-06 02:20 184 3 gusting 6 12.8
2020-Jul-06 02:16 171 4 gusting 7 12.8
2020-Jul-06 02:10 190 4 gusting 7 12.8
2020-Jul-06 02:05 193 4 gusting 6 12.8
2020-Jul-06 02:01 195 4 gusting 6 12.8
2020-Jul-06 01:56 171 4 gusting 6 12.8
2020-Jul-06 01:50 174 3 gusting 6 12.8
2020-Jul-06 01:46 172 4 gusting 7 12.8
2020-Jul-06 01:40 157 4 gusting 7 12.8
2020-Jul-06 01:35 180 3 gusting 7 12.8
2020-Jul-06 01:31 183 4 gusting 7 12.8
2020-Jul-06 01:25 158 3 gusting 9 12.8
2020-Jul-06 01:20 173 5 gusting 9 12.8
2020-Jul-06 01:16 169 4 gusting 8 12.8
2020-Jul-06 01:10 145 4 gusting 8 13.3
2020-Jul-06 01:05 180 3 gusting 6 12.8
2020-Jul-06 01:01 173 4 gusting 6 13.3
2020-Jul-06 00:55 201 4 gusting 6 12.8
2020-Jul-06 00:51 186 3 gusting 6 12.8
2020-Jul-06 00:46 172 3 gusting 6 12.8
2020-Jul-06 00:40 176 3 gusting 6 12.8
2020-Jul-06 00:35 187 4 gusting 6 12.8
2020-Jul-06 00:31 200 5 gusting 6 12.8
2020-Jul-06 00:26 225 4 gusting 6 12.8
2020-Jul-06 00:20 210 3 gusting 6 13.3
2020-Jul-06 00:16 183 4 gusting 7 13.3
2020-Jul-06 00:05 168 5 gusting 7 13.3
2020-Jul-06 00:01 180 4 gusting 7 13.3
2020-Jul-05 23:55 184 4 gusting 7 13.3
2020-Jul-05 23:50 196 4 gusting 7 13.3
2020-Jul-05 23:45 193 6 gusting 7 13.3
2020-Jul-05 23:40 174 5 gusting 7 13.3
2020-Jul-05 23:35 182 5 gusting 8 13.3
2020-Jul-05 23:31 176 5 gusting 7 13.3
2020-Jul-05 23:25 197 5 gusting 8 13.3
2020-Jul-05 23:20 191 5 gusting 8 13.3
2020-Jul-05 23:16 204 5 gusting 7 13.3
2020-Jul-05 23:10 184 5 gusting 8 13.3
2020-Jul-05 23:05 175 5 gusting 8 13.3
2020-Jul-05 23:00 157 5 gusting 9 13.3
2020-Jul-05 22:55 173 6 gusting 9 13.3
2020-Jul-05 22:50 168 6 gusting 8 13.3
2020-Jul-05 22:45 181 5 gusting 7 13.9
2020-Jul-05 22:40 164 5 gusting 8 13.3
2020-Jul-05 22:35 177 6 gusting 8 13.9
2020-Jul-05 22:30 180 6 gusting 8 13.9
2020-Jul-05 22:25 189 6 gusting 8 13.9
2020-Jul-05 22:20 187 6 gusting 8 13.9
2020-Jul-05 22:15 207 6 gusting 8 13.9
2020-Jul-05 22:10 176 6 gusting 9 13.9
2020-Jul-05 22:01 203 6 gusting 10 13.9
2020-Jul-05 21:55 182 6 gusting 13 13.9
2020-Jul-05 21:50 193 7 gusting 13 14.4
2020-Jul-05 21:45 194 7 gusting 11 13.9
2020-Jul-05 21:36 185 8 gusting 12 14.4
2020-Jul-05 21:32 193 7 gusting 12 14.4
2020-Jul-05 21:25 187 8 gusting 12 14.4
2020-Jul-05 21:20 179 8 gusting 11 14.4
2020-Jul-05 21:15 180 9 gusting 11 14.4
2020-Jul-05 21:10 174 7 gusting 10 14.4
2020-Jul-05 21:05 176 6 gusting 10 15.0
2020-Jul-05 21:00 173 7 gusting 11 15.0
2020-Jul-05 20:55 180 8 gusting 11 15.0
2020-Jul-05 20:50 178 7 gusting 12 15.0
2020-Jul-05 20:46 184 8 gusting 12 15.0
2020-Jul-05 20:40 196 8 gusting 12 15.6
2020-Jul-05 20:35 195 9 gusting 12 15.6
2020-Jul-05 20:30 201 9 gusting 12 15.6
2020-Jul-05 20:25 184 7 gusting 11 15.6
2020-Jul-05 20:20 182 7 gusting 10 15.6
2020-Jul-05 20:16 164 8 gusting 10 15.6
2020-Jul-05 20:10 180 8 gusting 10 16.1
2020-Jul-05 20:05 179 8 gusting 9 16.1
2020-Jul-05 20:00 170 7 gusting 9 16.1
2020-Jul-05 19:55 182 6 gusting 8 16.1
2020-Jul-05 19:50 166 4 gusting 6 16.1
2020-Jul-05 19:45 165 4 gusting 7 16.1
2020-Jul-05 19:40 175 4 gusting 7 15.6
2020-Jul-05 19:35 163 4 gusting 6 15.6
2020-Jul-05 19:30 146 3 gusting 6 15.6
2020-Jul-05 19:25 155 4 gusting 6 15.6
2020-Jul-05 19:20 149 4 gusting 6 15.6
2020-Jul-05 19:15 152 4 gusting 6 15.6
2020-Jul-05 19:10 141 3 gusting 6 15.6
2020-Jul-05 19:05 128 3 gusting 6 15.6
2020-Jul-05 19:00 124 3 gusting 7 15.6
2020-Jul-05 18:55 128 4 gusting 7 15.6
2020-Jul-05 18:50 174 3 gusting 6 15.6
2020-Jul-05 18:46 138 3 gusting 6 15.6
2020-Jul-05 18:40 128 4 gusting 7 15.6
2020-Jul-05 18:35 132 3 gusting 7 15.6
2020-Jul-05 18:31 164 4 gusting 7 15.6
2020-Jul-05 18:25 143 5 gusting 6 15.6
2020-Jul-05 18:20 162 4 gusting 6 15.6
2020-Jul-05 18:15 149 5 gusting 6 15.6
2020-Jul-05 18:10 155 3 gusting 8 15.6
2020-Jul-05 18:05 159 4 gusting 8 15.6
2020-Jul-05 18:00 164 6 gusting 7 15.6
2020-Jul-05 17:55 162 5 gusting 6 15.6
2020-Jul-05 17:50 161 4 gusting 7 15.6
2020-Jul-05 17:45 164 4 gusting 7 15.6
2020-Jul-05 17:40 173 5 gusting 7 15.6
2020-Jul-05 17:35 169 6 gusting 7 15.6
2020-Jul-05 17:30 171 4 gusting 7 15.6
2020-Jul-05 17:25 201 1 gusting 6 15.6
2020-Jul-05 17:20 171 1 gusting 6 15.6
2020-Jul-05 17:16 199 3 gusting 6 15.6
2020-Jul-05 17:10 177 2 gusting 6 15.0
2020-Jul-05 17:05 196 3 gusting 6 15.0
2020-Jul-05 17:00 179 3 gusting 6 15.0
2020-Jul-05 16:55 195 4 gusting 6 15.6
2020-Jul-05 16:50 101 1 gusting 3 15.0
2020-Jul-05 16:45 153 1 gusting 2 15.0
2020-Jul-05 16:40 168 0 gusting 4 15.0
2020-Jul-05 16:35 176 2 gusting 6 15.0
2020-Jul-05 16:31 171 3 gusting 6 15.0
2020-Jul-05 16:25 168 3 gusting 6 15.0
2020-Jul-05 16:20 171 5 gusting 7 15.0
2020-Jul-05 16:15 180 5 gusting 7 15.0
2020-Jul-05 16:10 155 6 gusting 7 15.0
2020-Jul-05 16:05 153 1 gusting 5 14.4
2020-Jul-05 15:55 174 3 gusting 6 14.4
2020-Jul-05 15:50 149 2 gusting 7 14.4
2020-Jul-05 15:40 163 2 gusting 6 14.4
2020-Jul-05 15:30 167 5 gusting 8 14.4
2020-Jul-05 15:25 183 4 gusting 7 14.4
2020-Jul-05 15:20 172 6 gusting 8 14.4
2020-Jul-05 15:10 175 6 gusting 7 14.4
2020-Jul-05 15:05 195 5 gusting 10 14.4
2020-Jul-05 14:55 180 2 gusting 6 13.9
2020-Jul-05 14:50 191 2 gusting 5 14.4
2020-Jul-05 14:45 161 1 gusting 7 13.9
2020-Jul-05 14:40 206 3 gusting 7 13.9
2020-Jul-05 14:35 197 5 gusting 8 13.9
2020-Jul-05 14:30 175 6 gusting 8 13.9
2020-Jul-05 14:25 164 5 gusting 8 13.9
2020-Jul-05 14:20 201 6 gusting 9 13.9
2020-Jul-05 14:15 197 6 gusting 9 13.9
2020-Jul-05 14:10 163 6 gusting 9 13.9
2020-Jul-05 14:05 171 6 gusting 9 13.9
2020-Jul-05 14:00 172 4 gusting 6 13.9
2020-Jul-05 13:51 178 5 gusting 7 13.3
2020-Jul-05 13:47 184 4 gusting 7 13.3
2020-Jul-05 13:41 194 4 gusting 7 13.3
2020-Jul-05 13:35 097 2 gusting 5 13.3
2020-Jul-05 13:32 191 13.3
2020-Jul-05 13:26 191 13.3
2020-Jul-05 13:21 149 0 gusting 2 13.3
2020-Jul-05 13:17 118 0 gusting 2 13.3
2020-Jul-05 13:10 133 0 gusting 3 13.3
2020-Jul-05 13:06 141 1 gusting 3 12.8
2020-Jul-05 13:01 157 0 gusting 6 12.8
2020-Jul-05 12:56 191 3 gusting 6 12.8
2020-Jul-05 12:50 218 3 gusting 6 12.8
2020-Jul-05 12:46 201 0 gusting 2 13.3
2020-Jul-05 12:41 143 12.8
2020-Jul-05 12:35 138 1 gusting 5 12.8
2020-Jul-05 12:31 156 2 gusting 5 12.8
2020-Jul-05 12:25 139 1 gusting 4 12.8
2020-Jul-05 12:20 177 0 gusting 4 12.8
2020-Jul-05 12:16 181 2 gusting 7 12.8
2020-Jul-05 12:10 124 3 gusting 7 13.3
2020-Jul-05 12:06 108 1 gusting 4 12.8
2020-Jul-05 12:01 093 1 gusting 5 12.8
2020-Jul-05 11:55 066 3 gusting 5 12.8
2020-Jul-05 11:50 094 1 gusting 4 12.8
2020-Jul-05 11:46 071 1 gusting 4 12.8
2020-Jul-05 11:40 091 1 gusting 5 13.3
2020-Jul-05 11:35 071 2 gusting 6 12.8
2020-Jul-05 11:30 083 3 gusting 5 13.3
2020-Jul-05 11:25 094 2 gusting 5 12.8
2020-Jul-05 11:20 086 1 gusting 5 12.8
2020-Jul-05 11:16 101 2 gusting 5 12.8
2020-Jul-05 11:11 114 1 gusting 2 12.8
2020-Jul-05 11:05 154 0 gusting 3 12.8
2020-Jul-05 11:00 087 1 gusting 5 12.8
2020-Jul-05 10:55 077 2 gusting 5 12.8
2020-Jul-05 10:50 064 1 gusting 6 12.8
2020-Jul-05 10:47 074 3 gusting 6 12.2
2020-Jul-05 10:40 209 0 gusting 2 12.2
2020-Jul-05 10:35 227 12.2
2020-Jul-05 10:32 209 11.7
2020-Jul-05 10:25 209 1 gusting 2 11.7
2020-Jul-05 10:20 293 11.7
2020-Jul-05 10:16 292 1 gusting 2 11.7
2020-Jul-05 10:10 305 0 gusting 1 11.7
2020-Jul-05 10:05 304 11.7
2020-Jul-05 10:01 297 11.1
2020-Jul-05 09:55 297 11.1
2020-Jul-05 09:50 297 11.1
2020-Jul-05 09:46 273 0 gusting 2 11.1
2020-Jul-05 09:40 221 1 gusting 4 11.1
2020-Jul-05 09:35 197 2 gusting 5 11.1
2020-Jul-05 09:31 177 2 gusting 5 11.1
2020-Jul-05 09:25 185 1 gusting 4 11.1
2020-Jul-05 09:20 159 0 gusting 5 11.1
2020-Jul-05 09:16 130 1 gusting 5 11.1
2020-Jul-05 09:11 118 1 gusting 6 11.1
2020-Jul-05 09:05 116 2 gusting 6 10.6
2020-Jul-05 09:01 247 10.6
2020-Jul-05 08:55 237 10.6
2020-Jul-05 08:50 230 1 gusting 4 10.6
2020-Jul-05 08:45 215 2 gusting 4 11.1
2020-Jul-05 08:40 222 2 gusting 5 11.1
2020-Jul-05 08:35 209 3 gusting 7 11.1
2020-Jul-05 08:31 201 2 gusting 7 11.1
2020-Jul-05 08:25 194 2 gusting 6 11.1
2020-Jul-05 08:20 153 3 gusting 7 11.1
2020-Jul-05 08:16 149 4 gusting 7 11.1
2020-Jul-05 08:10 177 2 gusting 7 11.1
2020-Jul-05 08:05 175 5 gusting 7 11.1
2020-Jul-05 08:00 178 4 gusting 7 11.1
2020-Jul-05 07:55 134 4 gusting 7 11.1
2020-Jul-05 07:50 147 3 gusting 6 11.1
2020-Jul-05 07:45 161 4 gusting 6 11.1
2020-Jul-05 07:40 193 3 gusting 6 11.1
2020-Jul-05 07:35 170 2 gusting 7 11.1
2020-Jul-05 07:30 143 3 gusting 7 11.1
2020-Jul-05 07:25 095 1 gusting 5 11.1
2020-Jul-05 07:20 183 2 gusting 5 11.1
2020-Jul-05 07:15 159 2 gusting 6 11.1
2020-Jul-05 07:10 163 3 gusting 6 11.1
2020-Jul-05 07:05 168 2 gusting 6 11.1
2020-Jul-05 07:00 151 0 gusting 6 11.1
2020-Jul-05 06:55 132 3 gusting 6 11.1
2020-Jul-05 06:50 141 4 gusting 6 11.7
2020-Jul-05 06:45 139 1 gusting 4 11.1
2020-Jul-05 06:40 096 0 gusting 3 11.1
2020-Jul-05 06:31 105 3 gusting 6 11.7
2020-Jul-05 06:25 110 3 gusting 7 11.7
2020-Jul-05 06:20 122 3 gusting 7 11.7
2020-Jul-05 06:10 164 4 gusting 7 11.7
2020-Jul-05 06:05 175 4 gusting 6 11.7
2020-Jul-05 05:55 131 1 gusting 6 11.7
2020-Jul-05 05:50 165 2 gusting 5 11.7
2020-Jul-05 05:45 197 2 gusting 6 11.7
2020-Jul-05 05:40 113 3 gusting 6 11.7
2020-Jul-05 05:30 134 3 gusting 6 11.7
2020-Jul-05 05:25 159 2 gusting 6 11.7
2020-Jul-05 05:20 173 2 gusting 4 11.7
2020-Jul-05 05:15 176 11.1
2020-Jul-05 05:10 176 0 gusting 5 11.7
2020-Jul-05 05:05 128 0 gusting 3 11.7
2020-Jul-05 04:55 126 2 gusting 5 11.7
2020-Jul-05 04:50 163 1 gusting 6 11.7
2020-Jul-05 04:45 101 4 gusting 6 11.7
2020-Jul-05 04:35 144 2 gusting 5 11.7
2020-Jul-05 04:30 123 3 gusting 5 11.7
2020-Jul-05 04:25 139 1 gusting 6 11.7
2020-Jul-05 04:20 134 3 gusting 6 11.7
2020-Jul-05 04:10 130 0 gusting 4 11.7
2020-Jul-05 04:05 126 2 gusting 5 11.7
2020-Jul-05 04:00 153 2 gusting 6 11.7
2020-Jul-05 03:55 099 3 gusting 6 11.7
2020-Jul-05 03:40 142 2 gusting 6 11.7
2020-Jul-05 03:35 154 2 gusting 6 12.2
2020-Jul-05 03:31 139 3 gusting 6 12.2
2020-Jul-05 03:25 132 1 gusting 6 11.7
2020-Jul-05 03:20 158 1 gusting 6 12.2
2020-Jul-05 03:16 182 3 gusting 6 12.2
2020-Jul-05 03:10 155 2 gusting 6 12.2
2020-Jul-05 03:05 164 2 gusting 6 12.2
2020-Jul-05 03:01 097 3 gusting 8 12.2
2020-Jul-05 02:55 126 4 gusting 8 12.2
2020-Jul-05 02:50 122 3 gusting 5 12.2
2020-Jul-05 02:47 138 3 gusting 6 12.2
2020-Jul-05 02:40 132 3 gusting 6 12.2
2020-Jul-05 02:36 164 3 gusting 7 12.2
2020-Jul-05 02:31 137 4 gusting 7 12.2
2020-Jul-05 02:25 126 4 gusting 9 12.2
2020-Jul-05 02:20 137 5 gusting 9 12.2
2020-Jul-05 02:16 154 4 gusting 6 12.2
2020-Jul-05 02:10 132 4 gusting 6 12.2
2020-Jul-05 02:05 111 4 gusting 6 12.2
2020-Jul-05 02:01 156 3 gusting 6 12.2
2020-Jul-05 01:55 138 5 gusting 6 12.8
2020-Jul-05 01:50 101 4 gusting 6 12.8
2020-Jul-05 01:47 147 4 gusting 6 12.8
2020-Jul-05 01:40 106 4 gusting 6 12.8
2020-Jul-05 01:36 143 4 gusting 7 12.8
2020-Jul-05 01:32 137 3 gusting 7 12.8
2020-Jul-05 01:25 109 4 gusting 7 12.8
2020-Jul-05 01:20 120 5 gusting 8 12.8
2020-Jul-05 01:05 115 3 gusting 7 12.8
2020-Jul-05 01:01 141 5 gusting 7 12.8
2020-Jul-05 00:56 121 5 gusting 9 12.8
2020-Jul-05 00:50 075 6 gusting 8 13.3
2020-Jul-05 00:46 118 5 gusting 9 13.3
2020-Jul-05 00:40 135 3 gusting 9 13.3
2020-Jul-05 00:35 116 5 gusting 8 13.3
2020-Jul-05 00:31 116 6 gusting 8 13.3
2020-Jul-05 00:25 118 5 gusting 10 13.3
2020-Jul-05 00:20 083 6 gusting 10 13.3
2020-Jul-05 00:15 110 6 gusting 8 13.3
2020-Jul-05 00:10 122 5 gusting 8 13.3
2020-Jul-05 00:05 117 5 gusting 9 13.3
2020-Jul-05 00:00 109 5 gusting 9 13.9
2020-Jul-04 23:55 084 3 gusting 7 13.9
2020-Jul-04 23:51 129 5 gusting 7 13.9
2020-Jul-04 23:46 133 3 gusting 6 13.9
2020-Jul-04 23:40 122 2 gusting 7 13.9
2020-Jul-04 23:35 088 4 gusting 11 13.9
2020-Jul-04 23:30 101 2 gusting 12 13.9
2020-Jul-04 23:25 076 8 gusting 12 13.9
2020-Jul-04 23:20 125 4 gusting 8 13.9
2020-Jul-04 23:15 138 5 gusting 8 13.9
2020-Jul-04 23:10 107 6 gusting 8 13.9
2020-Jul-04 23:05 120 6 gusting 9 13.9
2020-Jul-04 23:00 136 6 gusting 9 13.9
2020-Jul-04 22:55 110 5 gusting 8 13.9
2020-Jul-04 22:50 135 6 gusting 8 14.4
2020-Jul-04 22:45 130 6 gusting 8 14.4
2020-Jul-04 22:40 128 6 gusting 8 13.9
2020-Jul-04 22:35 130 5 gusting 9 14.4
2020-Jul-04 22:30 131 6 gusting 9 13.9
2020-Jul-04 22:25 134 6 gusting 11 14.4
2020-Jul-04 22:20 107 3 gusting 11 13.9
2020-Jul-04 22:15 132 5 gusting 8 14.4
2020-Jul-04 22:10 159 4 gusting 7 13.9
2020-Jul-04 22:06 180 4 gusting 7 13.9
2020-Jul-04 22:01 170 4 gusting 8 13.9
2020-Jul-04 21:55 191 5 gusting 8 13.9
2020-Jul-04 21:50 178 5 gusting 7 13.9
2020-Jul-04 21:46 200 4 gusting 7 13.9
2020-Jul-04 21:40 170 5 gusting 7 13.9
2020-Jul-04 21:35 188 5 gusting 8 14.4
2020-Jul-04 21:31 167 6 gusting 9 14.4
2020-Jul-04 21:25 199 6 gusting 9 14.4
2020-Jul-04 21:20 172 6 gusting 8 14.4
2020-Jul-04 21:15 172 6 gusting 9 14.4
2020-Jul-04 21:10 166 6 gusting 8 14.4
2020-Jul-04 21:05 173 5 gusting 10 14.4
2020-Jul-04 21:01 184 6 gusting 8 14.4
2020-Jul-04 20:55 178 5 gusting 8 14.4
2020-Jul-04 20:50 184 6 gusting 9 14.4
2020-Jul-04 20:40 168 6 gusting 9 14.4
2020-Jul-04 20:30 153 6 gusting 9 14.4
2020-Jul-04 20:25 168 6 gusting 10 14.4
2020-Jul-04 20:10 180 6 gusting 9 15.0
2020-Jul-04 20:05 166 7 gusting 10 15.0
2020-Jul-04 20:00 163 6 gusting 11 15.0
2020-Jul-04 19:55 177 7 gusting 10 15.0
2020-Jul-04 19:50 164 6 gusting 10 15.0
2020-Jul-04 19:40 175 6 gusting 10 15.0
2020-Jul-04 19:35 151 7 gusting 9 15.0
2020-Jul-04 19:20 149 5 gusting 8 15.0
2020-Jul-04 19:10 154 6 gusting 10 15.0
2020-Jul-04 19:05 132 7 gusting 10 15.0
2020-Jul-04 19:00 153 6 gusting 9 15.0
2020-Jul-04 18:50 183 6 gusting 8 15.0
2020-Jul-04 18:45 160 6 gusting 9 15.0
2020-Jul-04 18:40 136 6 gusting 10 15.0
2020-Jul-04 18:35 151 7 gusting 10 15.0
2020-Jul-04 18:25 170 6 gusting 9 15.0
2020-Jul-04 18:20 150 6 gusting 8 15.0
2020-Jul-04 18:10 167 6 gusting 10 15.0
2020-Jul-04 18:05 138 6 gusting 9 15.0
2020-Jul-04 18:00 164 4 gusting 7 15.6
2020-Jul-04 17:55 171 6 gusting 8 15.0
2020-Jul-04 17:50 182 6 gusting 8 15.0
2020-Jul-04 17:45 178 6 gusting 10 15.0
2020-Jul-04 17:40 170 6 gusting 10 15.0
2020-Jul-04 17:35 178 6 gusting 10 15.0
2020-Jul-04 17:30 169 7 gusting 12 15.6
2020-Jul-04 17:25 155 6 gusting 12 15.6
2020-Jul-04 17:20 193 7 gusting 12 15.6
2020-Jul-04 17:15 175 7 gusting 13 15.6
2020-Jul-04 17:10 176 9 gusting 13 15.6
2020-Jul-04 17:05 171 9 gusting 13 15.6
2020-Jul-04 16:55 164 9 gusting 13 15.0
2020-Jul-04 16:46 149 8 gusting 11 15.0
2020-Jul-04 16:41 174 7 gusting 13 15.0
2020-Jul-04 16:36 165 7 gusting 13 15.0
2020-Jul-04 16:31 178 8 gusting 11 15.0
2020-Jul-04 16:25 189 7 gusting 10 15.0
2020-Jul-04 16:20 164 6 gusting 10 15.0
2020-Jul-04 16:18 180 7 gusting 9 15.0
2020-Jul-04 16:10 168 5 gusting 7 15.0
2020-Jul-04 16:06 172 6 gusting 7 15.0
2020-Jul-04 16:02 155 5 gusting 10 15.0
2020-Jul-04 15:56 155 6 gusting 10 15.0
2020-Jul-04 15:50 163 5 gusting 8 15.0
2020-Jul-04 15:47 144 2 gusting 6 15.0
2020-Jul-04 15:40 177 5 gusting 8 15.0
2020-Jul-04 15:35 179 6 gusting 8 15.0
2020-Jul-04 15:31 099 2 gusting 7 15.0
2020-Jul-04 15:26 145 5 gusting 13 15.0
2020-Jul-04 15:20 097 7 gusting 13 15.0
2020-Jul-04 15:16 085 8 gusting 12 15.0
2020-Jul-04 15:10 076 8 gusting 12 15.0
2020-Jul-04 15:05 088 6 gusting 11 15.0
2020-Jul-04 15:01 078 6 gusting 11 15.0
2020-Jul-04 14:56 067 8 gusting 11 14.4
2020-Jul-04 14:50 061 6 gusting 9 15.0
2020-Jul-04 14:47 074 6 gusting 7 15.0
2020-Jul-04 14:41 112 3 gusting 5 15.0
2020-Jul-04 14:35 128 4 gusting 6 15.0
2020-Jul-04 14:31 137 3 gusting 7 14.4
2020-Jul-04 14:25 130 4 gusting 7 14.4
2020-Jul-04 14:20 153 3 gusting 7 14.4
2020-Jul-04 14:17 162 3 gusting 9 14.4
2020-Jul-04 14:10 111 6 gusting 10 14.4
2020-Jul-04 14:05 125 6 gusting 10 14.4
2020-Jul-04 14:01 117 7 gusting 9 14.4
2020-Jul-04 13:55 168 4 gusting 6 14.4
2020-Jul-04 13:51 143 4 gusting 6 14.4
2020-Jul-04 13:46 122 3 gusting 6 14.4
2020-Jul-04 13:40 154 4 gusting 7 14.4
2020-Jul-04 13:35 135 5 gusting 7 13.9
2020-Jul-04 13:30 147 1 gusting 6 13.9
2020-Jul-04 13:25 130 3 gusting 6 13.9
2020-Jul-04 13:20 132 3 gusting 6 13.9
2020-Jul-04 13:16 128 5 gusting 6 13.9
2020-Jul-04 13:10 156 1 gusting 6 13.9
2020-Jul-04 13:05 077 4 gusting 6 13.9
2020-Jul-04 13:01 093 1 gusting 5 13.9
2020-Jul-04 12:55 120 2 gusting 5 13.9
2020-Jul-04 12:50 112 2 gusting 6 13.9
2020-Jul-04 12:46 104 3 gusting 6 13.9
2020-Jul-04 12:40 114 3 gusting 6 13.9
2020-Jul-04 12:35 129 4 gusting 6 13.9
2020-Jul-04 12:30 120 3 gusting 6 13.9
2020-Jul-04 12:25 128 3 gusting 8 13.9
2020-Jul-04 12:20 127 5 gusting 8 13.9
2020-Jul-04 12:16 150 6 gusting 7 13.9
2020-Jul-04 12:10 133 4 gusting 9 13.9
2020-Jul-04 12:05 139 5 gusting 9 13.3
2020-Jul-04 12:00 147 4 gusting 7 13.3
2020-Jul-04 11:55 101 3 gusting 7 13.3
2020-Jul-04 11:50 123 4 gusting 6 13.3
2020-Jul-04 11:45 125 4 gusting 8 13.3
2020-Jul-04 11:40 155 4 gusting 8 13.3
2020-Jul-04 11:35 134 6 gusting 10 13.3
2020-Jul-04 11:30 109 6 gusting 10 13.9
2020-Jul-04 11:25 116 6 gusting 8 13.3
2020-Jul-04 11:20 127 4 gusting 6 13.3
2020-Jul-04 11:15 124 2 gusting 6 13.3
2020-Jul-04 11:06 103 2 gusting 5 12.8
2020-Jul-04 11:02 097 2 gusting 6 12.8
2020-Jul-04 10:55 114 3 gusting 6 12.8
2020-Jul-04 10:50 126 3 gusting 6 13.3
2020-Jul-04 10:45 108 4 gusting 8 13.3
2020-Jul-04 10:40 105 5 gusting 8 13.3
2020-Jul-04 10:35 141 4 gusting 7 13.3
2020-Jul-04 10:30 152 5 gusting 8 13.3
2020-Jul-04 10:25 104 6 gusting 8 13.9
2020-Jul-04 10:20 130 5 gusting 9 13.3
2020-Jul-04 10:16 101 6 gusting 9 13.3
2020-Jul-04 10:10 116 6 gusting 9 13.3
2020-Jul-04 10:05 124 6 gusting 9 12.8
2020-Jul-04 10:01 116 6 gusting 9 12.8
2020-Jul-04 09:55 122 4 gusting 7 12.2
2020-Jul-04 09:50 097 5 gusting 7 12.2
2020-Jul-04 09:45 120 4 gusting 7 12.2
2020-Jul-04 09:40 097 3 gusting 6 12.2
2020-Jul-04 09:35 089 4 gusting 7 12.2
2020-Jul-04 09:30 106 6 gusting 9 12.2
2020-Jul-04 09:25 087 4 gusting 8 12.8
2020-Jul-04 09:20 087 6 gusting 8 12.8
2020-Jul-04 09:15 107 2 gusting 6 12.2
2020-Jul-04 09:10 107 3 gusting 7 12.2
2020-Jul-04 09:05 108 2 gusting 8 12.2
2020-Jul-04 08:55 129 5 gusting 8 12.2
2020-Jul-04 08:50 103 5 gusting 8 12.2
2020-Jul-04 08:45 107 4 gusting 7 12.8
2020-Jul-04 08:40 152 3 gusting 6 12.8
2020-Jul-04 08:35 124 3 gusting 7 12.8
2020-Jul-04 08:31 116 2 gusting 7 12.8
2020-Jul-04 08:25 145 5 gusting 8 12.2
2020-Jul-04 08:20 125 4 gusting 8 12.8
2020-Jul-04 08:15 146 6 gusting 9 12.8
2020-Jul-04 08:10 136 4 gusting 9 12.8
2020-Jul-04 08:05 118 4 gusting 7 12.8
2020-Jul-04 08:00 128 5 gusting 7 12.8
2020-Jul-04 07:55 116 5 gusting 7 12.8
2020-Jul-04 07:50 149 4 gusting 9 12.8
2020-Jul-04 07:40 176 5 gusting 7 12.8
2020-Jul-04 07:30 132 4 gusting 8 12.8
2020-Jul-04 07:25 130 5 gusting 8 12.8
2020-Jul-04 07:20 120 5 gusting 8 12.8
2020-Jul-04 07:10 132 4 gusting 9 12.8
2020-Jul-04 07:05 130 6 gusting 9 12.8
2020-Jul-04 06:55 110 4 gusting 8 12.8
2020-Jul-04 06:45 109 6 gusting 9 12.8
2020-Jul-04 06:40 122 4 gusting 9 12.8
2020-Jul-04 06:35 158 6 gusting 9 12.8
2020-Jul-04 06:25 152 4 gusting 8 12.8
2020-Jul-04 06:21 124 4 gusting 8 12.8
2020-Jul-04 06:15 149 6 gusting 8 12.8
2020-Jul-04 06:10 174 6 gusting 10 12.8
2020-Jul-04 06:05 151 6 gusting 10 12.8
2020-Jul-04 06:00 132 6 gusting 9 12.8
2020-Jul-04 05:55 147 6 gusting 9 12.8
2020-Jul-04 05:50 162 6 gusting 9 13.3
2020-Jul-04 05:45 137 6 gusting 9 13.3
2020-Jul-04 05:36 129 6 gusting 10 13.3
2020-Jul-04 05:31 132 6 gusting 12 13.3
2020-Jul-04 05:26 143 6 gusting 10 13.3
2020-Jul-04 05:20 158 7 gusting 11 13.3
2020-Jul-04 05:16 128 7 gusting 10 13.3
2020-Jul-04 05:11 149 6 gusting 9 13.3
2020-Jul-04 05:06 180 5 gusting 8 13.3
2020-Jul-04 05:01 160 4 gusting 9 13.3